Year,Month,Day,Hour,Minute,Value (Times are PST for temperature in C)
2010,08,02,09,10,18.80
2010,08,02,09,11,18.70
2010,08,02,09,12,18.60
2010,08,02,09,13,18.60
2010,08,02,09,14,18.60
2010,08,02,09,15,18.60
2010,08,02,09,16,18.60
2010,08,02,09,17,18.60
2010,08,02,09,18,18.50
2010,08,02,09,19,18.50
2010,08,02,09,20,18.50
2010,08,02,09,21,18.40
2010,08,02,09,22,18.40
2010,08,02,09,23,18.30
2010,08,02,09,24,18.30
2010,08,02,09,25,18.30
2010,08,02,09,26,18.30
2010,08,02,09,27,18.40
2010,08,02,09,28,18.40
2010,08,02,09,29,18.40
2010,08,02,09,30,18.50
2010,08,02,09,31,18.50
2010,08,02,09,32,18.60
2010,08,02,09,33,18.60
2010,08,02,09,34,18.60
2010,08,02,09,35,18.70
2010,08,02,09,36,18.70
2010,08,02,09,37,18.70
2010,08,02,09,38,18.80
2010,08,02,09,39,18.80
2010,08,02,09,40,18.80
2010,08,02,09,41,18.80
2010,08,02,09,42,18.90
2010,08,02,09,43,18.80
2010,08,02,09,44,18.80
2010,08,02,09,45,18.80
2010,08,02,09,46,18.80
2010,08,02,09,47,18.80
2010,08,02,09,48,18.80
2010,08,02,09,49,18.90
2010,08,02,09,50,18.90
2010,08,02,09,51,19.00
2010,08,02,09,52,19.00
2010,08,02,09,53,19.10
2010,08,02,09,54,19.10
2010,08,02,09,55,19.10
2010,08,02,09,56,19.20
2010,08,02,09,57,19.20
2010,08,02,09,58,19.20
2010,08,02,09,59,19.20
2010,08,02,10,00,19.20
2010,08,02,10,01,19.30
2010,08,02,10,02,19.30
2010,08,02,10,03,19.30
2010,08,02,10,04,19.40
2010,08,02,10,05,19.40
2010,08,02,10,06,19.40
2010,08,02,10,07,19.40
2010,08,02,10,08,19.40
2010,08,02,10,09,19.40
2010,08,02,10,10,19.30
2010,08,02,10,11,19.30
2010,08,02,10,12,19.20
2010,08,02,10,13,19.10
2010,08,02,10,14,19.00
2010,08,02,10,15,18.90
2010,08,02,10,16,18.90
2010,08,02,10,17,18.80
2010,08,02,10,18,18.70
2010,08,02,10,19,18.60
2010,08,02,10,20,18.60
2010,08,02,10,21,18.60
2010,08,02,10,22,18.60
2010,08,02,10,23,18.70
2010,08,02,10,24,18.70
2010,08,02,10,25,18.80
2010,08,02,10,26,18.80
2010,08,02,10,27,18.80
2010,08,02,10,28,18.80
2010,08,02,10,29,18.70
2010,08,02,10,30,18.60
2010,08,02,10,31,18.60
2010,08,02,10,32,18.70
2010,08,02,10,33,18.70
2010,08,02,10,34,18.70
2010,08,02,10,35,18.80
2010,08,02,10,36,18.80
2010,08,02,10,37,18.90
2010,08,02,10,38,18.90
2010,08,02,10,39,18.90
2010,08,02,10,40,19.00
2010,08,02,10,41,19.10
2010,08,02,10,42,19.10
2010,08,02,10,43,19.20
2010,08,02,10,44,19.20
2010,08,02,10,45,19.30
2010,08,02,10,46,19.30
2010,08,02,10,47,19.30
2010,08,02,10,48,19.30
2010,08,02,10,49,19.30
2010,08,02,10,50,19.30
2010,08,02,10,51,19.30
2010,08,02,10,52,19.30
2010,08,02,10,53,19.30
2010,08,02,10,54,19.30
2010,08,02,10,55,19.40
2010,08,02,10,56,19.50
2010,08,02,10,57,19.50
2010,08,02,10,58,19.60
2010,08,02,10,59,19.50
2010,08,02,11,00,19.50
2010,08,02,11,01,19.50
2010,08,02,11,02,19.50
2010,08,02,11,03,19.60
2010,08,02,11,04,19.60
2010,08,02,11,05,19.60
2010,08,02,11,06,19.60
2010,08,02,11,07,19.60
2010,08,02,11,08,19.70
2010,08,02,11,09,19.80
2010,08,02,11,10,19.80
2010,08,02,11,11,19.90
2010,08,02,11,12,19.90
2010,08,02,11,13,19.80
2010,08,02,11,14,19.90
2010,08,02,11,15,19.90
2010,08,02,11,16,20.00
2010,08,02,11,17,20.00
2010,08,02,11,18,20.10
2010,08,02,11,19,20.10
2010,08,02,11,20,20.10
2010,08,02,11,21,20.20
2010,08,02,11,22,20.20
2010,08,02,11,23,20.20
2010,08,02,11,24,20.30
2010,08,02,11,25,20.30
2010,08,02,11,26,20.30
2010,08,02,11,27,20.30
2010,08,02,11,28,20.30
2010,08,02,11,29,20.30
2010,08,02,11,30,20.30
2010,08,02,11,31,20.30
2010,08,02,11,32,20.30
2010,08,02,11,33,20.40
2010,08,02,11,34,20.40
2010,08,02,11,35,20.40
2010,08,02,11,36,20.50
2010,08,02,11,37,20.60
2010,08,02,11,38,20.70
2010,08,02,11,39,20.80
2010,08,02,11,40,20.90
2010,08,02,11,41,20.90
2010,08,02,11,42,21.00
2010,08,02,11,43,21.00
2010,08,02,11,44,21.00
2010,08,02,11,45,21.10
2010,08,02,11,46,21.10
2010,08,02,11,47,21.10
2010,08,02,11,48,21.10
2010,08,02,11,49,21.10
2010,08,02,11,50,21.10
2010,08,02,11,51,21.10
2010,08,02,11,52,21.10
2010,08,02,11,53,21.10
2010,08,02,11,54,21.00
2010,08,02,11,55,20.90
2010,08,02,11,56,20.90
2010,08,02,11,57,20.80
2010,08,02,11,58,20.80
2010,08,02,11,59,20.80
2010,08,02,12,00,20.90
2010,08,02,12,01,20.90
2010,08,02,12,02,21.00
2010,08,02,12,03,21.10
2010,08,02,12,04,21.20
2010,08,02,12,05,21.20
2010,08,02,12,06,21.20
2010,08,02,12,07,21.30
2010,08,02,12,08,21.20
2010,08,02,12,09,21.20
2010,08,02,12,10,21.30
2010,08,02,12,11,21.30
2010,08,02,12,12,21.40
2010,08,02,12,13,21.40
2010,08,02,12,14,21.50
2010,08,02,12,15,21.60
2010,08,02,12,16,21.70
2010,08,02,12,17,21.80
2010,08,02,12,18,21.80
2010,08,02,12,19,21.90
2010,08,02,12,20,21.90
2010,08,02,12,21,21.90
2010,08,02,12,22,21.90
2010,08,02,12,23,21.80
2010,08,02,12,24,21.80
2010,08,02,12,25,21.70
2010,08,02,12,26,21.70
2010,08,02,12,27,21.70
2010,08,02,12,28,21.60
2010,08,02,12,29,21.60
2010,08,02,12,30,21.60
2010,08,02,12,31,21.60
2010,08,02,12,32,21.60
2010,08,02,12,33,21.60
2010,08,02,12,34,21.60
2010,08,02,12,35,21.60
2010,08,02,12,36,21.60
2010,08,02,12,37,21.70
2010,08,02,12,38,21.70
2010,08,02,12,39,21.70
2010,08,02,12,40,21.70
2010,08,02,12,41,21.70
2010,08,02,12,42,21.70
2010,08,02,12,43,21.70
2010,08,02,12,44,21.70
2010,08,02,12,45,21.80
2010,08,02,12,46,21.80
2010,08,02,12,47,21.80
2010,08,02,12,48,21.80
2010,08,02,12,49,21.80
2010,08,02,12,50,21.80
2010,08,02,12,51,21.80
2010,08,02,12,52,21.80
2010,08,02,12,53,21.90
2010,08,02,12,54,22.00
2010,08,02,12,55,22.00
2010,08,02,12,56,22.20
2010,08,02,12,57,22.30
2010,08,02,12,58,22.40
2010,08,02,12,59,22.50
2010,08,02,13,00,22.70
2010,08,02,13,01,22.70
2010,08,02,13,02,22.80
2010,08,02,13,03,22.90
2010,08,02,13,04,23.00
2010,08,02,13,05,23.10
2010,08,02,13,06,23.10
2010,08,02,13,07,23.10
2010,08,02,13,08,23.10
2010,08,02,13,09,23.10
2010,08,02,13,10,23.10
2010,08,02,13,11,23.00
2010,08,02,13,12,22.90
2010,08,02,13,13,22.90
2010,08,02,13,14,22.90
2010,08,02,13,15,22.80
2010,08,02,13,16,22.80
2010,08,02,13,17,22.80
2010,08,02,13,18,22.80
2010,08,02,13,19,22.80
2010,08,02,13,20,23.00
2010,08,02,13,21,23.10
2010,08,02,13,22,23.10
2010,08,02,13,23,23.10
2010,08,02,13,24,23.10
2010,08,02,13,25,22.90
2010,08,02,13,26,22.80
2010,08,02,13,27,22.70
2010,08,02,13,28,22.70
2010,08,02,13,29,22.70
2010,08,02,13,30,22.80
2010,08,02,13,31,22.90
2010,08,02,13,32,23.00
2010,08,02,13,33,23.00
2010,08,02,13,34,22.90
2010,08,02,13,35,23.00
2010,08,02,13,36,23.10
2010,08,02,13,37,23.20
2010,08,02,13,38,23.30
2010,08,02,13,39,23.30
2010,08,02,13,40,23.30
2010,08,02,13,41,23.30
2010,08,02,13,42,23.30
2010,08,02,13,43,23.30
2010,08,02,13,44,23.30
2010,08,02,13,45,23.30
2010,08,02,13,46,23.20
2010,08,02,13,47,23.10
2010,08,02,13,48,23.10
2010,08,02,13,49,23.00
2010,08,02,13,50,23.00
2010,08,02,13,51,23.00
2010,08,02,13,52,23.00
2010,08,02,13,53,23.10
2010,08,02,13,54,23.10
2010,08,02,13,55,23.20
2010,08,02,13,56,23.30
2010,08,02,13,57,23.40
2010,08,02,13,58,23.50
2010,08,02,13,59,23.60
2010,08,02,14,00,23.70
2010,08,02,14,01,23.80
2010,08,02,14,02,23.80
2010,08,02,14,03,23.70
2010,08,02,14,04,23.60
2010,08,02,14,05,23.40
2010,08,02,14,06,23.30
2010,08,02,14,07,23.20
2010,08,02,14,08,23.10
2010,08,02,14,09,23.10
2010,08,02,14,10,23.10
2010,08,02,14,11,23.10
2010,08,02,14,12,23.20
2010,08,02,14,13,23.20
2010,08,02,14,14,23.20
2010,08,02,14,15,23.20
2010,08,02,14,16,23.20
2010,08,02,14,17,23.10
2010,08,02,14,18,23.10
2010,08,02,14,19,23.00
2010,08,02,14,20,23.00
2010,08,02,14,21,23.00
2010,08,02,14,22,22.90
2010,08,02,14,23,22.90
2010,08,02,14,24,22.90
2010,08,02,14,25,22.90
2010,08,02,14,26,23.00
2010,08,02,14,27,23.10
2010,08,02,14,28,23.10
2010,08,02,14,29,23.10
2010,08,02,14,30,23.00
2010,08,02,14,31,22.90
2010,08,02,14,32,22.80
2010,08,02,14,33,22.70
2010,08,02,14,34,22.60
2010,08,02,14,35,22.60
2010,08,02,14,36,22.60
2010,08,02,14,37,22.70
2010,08,02,14,38,22.70
2010,08,02,14,39,22.80
2010,08,02,14,40,22.90
2010,08,02,14,41,22.90
2010,08,02,14,42,22.80
2010,08,02,14,43,22.70
2010,08,02,14,44,22.60
2010,08,02,14,45,22.60
2010,08,02,14,46,22.70
2010,08,02,14,47,22.80
2010,08,02,14,48,22.70
2010,08,02,14,49,22.70
2010,08,02,14,50,22.70
2010,08,02,14,51,22.70
2010,08,02,14,52,22.70
2010,08,02,14,53,22.70
2010,08,02,14,54,22.70
2010,08,02,14,55,22.70
2010,08,02,14,56,22.70
2010,08,02,14,57,22.80
2010,08,02,14,58,22.80
2010,08,02,14,59,22.70
2010,08,02,15,00,22.70
2010,08,02,15,01,22.70
2010,08,02,15,02,22.70
2010,08,02,15,03,22.60
2010,08,02,15,04,22.70
2010,08,02,15,05,22.70
2010,08,02,15,06,22.70
2010,08,02,15,07,22.80
2010,08,02,15,08,22.70
2010,08,02,15,09,22.70
2010,08,02,15,10,22.70
2010,08,02,15,11,22.70
2010,08,02,15,12,22.70
2010,08,02,15,13,22.70
2010,08,02,15,14,22.60
2010,08,02,15,15,22.60
2010,08,02,15,16,22.50
2010,08,02,15,17,22.40
2010,08,02,15,18,22.30
2010,08,02,15,19,22.20
2010,08,02,15,20,22.20
2010,08,02,15,21,22.20
2010,08,02,15,22,22.20
2010,08,02,15,23,22.20
2010,08,02,15,24,22.30
2010,08,02,15,25,22.30
2010,08,02,15,26,22.30
2010,08,02,15,27,22.20
2010,08,02,15,28,22.20
2010,08,02,15,29,22.20
2010,08,02,15,30,22.10
2010,08,02,15,31,22.10
2010,08,02,15,32,22.10
2010,08,02,15,33,22.10
2010,08,02,15,34,22.10
2010,08,02,15,35,22.00
2010,08,02,15,36,22.00
2010,08,02,15,37,21.90
2010,08,02,15,38,21.90
2010,08,02,15,39,21.90
2010,08,02,15,40,22.00
2010,08,02,15,41,22.10
2010,08,02,15,42,22.10
2010,08,02,15,43,22.10
2010,08,02,15,44,22.20
2010,08,02,15,45,22.20
2010,08,02,15,46,22.20
2010,08,02,15,47,22.20
2010,08,02,15,48,22.20
2010,08,02,15,49,22.20
2010,08,02,15,50,22.20
2010,08,02,15,51,22.20
2010,08,02,15,52,22.20
2010,08,02,15,53,22.20
2010,08,02,15,54,22.20
2010,08,02,15,55,22.20
2010,08,02,15,56,22.20
2010,08,02,15,57,22.30
2010,08,02,15,58,22.30
2010,08,02,15,59,22.30
2010,08,02,16,00,22.30
2010,08,02,16,01,22.30
2010,08,02,16,02,22.30
2010,08,02,16,03,22.30
2010,08,02,16,04,22.30
2010,08,02,16,05,22.30
2010,08,02,16,06,22.30
2010,08,02,16,07,22.30
2010,08,02,16,08,22.20
2010,08,02,16,09,22.20
2010,08,02,16,10,22.10
2010,08,02,16,11,22.10
2010,08,02,16,12,22.00
2010,08,02,16,13,22.00
2010,08,02,16,14,22.00
2010,08,02,16,15,21.90
2010,08,02,16,16,21.90
2010,08,02,16,17,21.90
2010,08,02,16,18,21.90
2010,08,02,16,19,21.90
2010,08,02,16,20,21.90
2010,08,02,16,21,21.90
2010,08,02,16,22,21.90
2010,08,02,16,23,21.90
2010,08,02,16,24,21.90
2010,08,02,16,25,21.80
2010,08,02,16,26,21.80
2010,08,02,16,27,21.80
2010,08,02,16,28,21.80
2010,08,02,16,29,21.80
2010,08,02,16,30,21.70
2010,08,02,16,31,21.60
2010,08,02,16,32,21.50
2010,08,02,16,33,21.40
2010,08,02,16,34,21.30
2010,08,02,16,35,21.30
2010,08,02,16,36,21.30
2010,08,02,16,37,21.20
2010,08,02,16,38,21.30
2010,08,02,16,39,21.20
2010,08,02,16,40,21.20
2010,08,02,16,41,21.20
2010,08,02,16,42,21.20
2010,08,02,16,43,21.20
2010,08,02,16,44,21.10
2010,08,02,16,45,21.00
2010,08,02,16,46,20.90
2010,08,02,16,47,20.80
2010,08,02,16,48,20.70
2010,08,02,16,49,20.60
2010,08,02,16,50,20.60
2010,08,02,16,51,20.60
2010,08,02,16,52,20.50
2010,08,02,16,53,20.40
2010,08,02,16,54,20.40
2010,08,02,16,55,20.30
2010,08,02,16,56,20.30
2010,08,02,16,57,20.30
2010,08,02,16,58,20.40
2010,08,02,16,59,20.40
2010,08,02,17,00,20.40
2010,08,02,17,01,20.40
2010,08,02,17,02,20.40
2010,08,02,17,03,20.30
2010,08,02,17,04,20.30
2010,08,02,17,05,20.20
2010,08,02,17,06,20.20
2010,08,02,17,07,20.10
2010,08,02,17,08,20.10
2010,08,02,17,09,20.10
2010,08,02,17,10,20.10
2010,08,02,17,11,20.20
2010,08,02,17,12,20.20
2010,08,02,17,13,20.30
2010,08,02,17,14,20.40
2010,08,02,17,15,20.40
2010,08,02,17,16,20.50
2010,08,02,17,17,20.50
2010,08,02,17,18,20.60
2010,08,02,17,19,20.60
2010,08,02,17,20,20.60
2010,08,02,17,21,20.50
2010,08,02,17,22,20.40
2010,08,02,17,23,20.40
2010,08,02,17,24,20.20
2010,08,02,17,25,20.10
2010,08,02,17,26,19.90
2010,08,02,17,27,19.70
2010,08,02,17,28,19.50
2010,08,02,17,29,19.40
2010,08,02,17,30,19.30
2010,08,02,17,31,19.10
2010,08,02,17,32,19.00
2010,08,02,17,33,18.90
2010,08,02,17,34,18.90
2010,08,02,17,35,18.90
2010,08,02,17,36,18.90
2010,08,02,17,37,18.90
2010,08,02,17,38,18.90
2010,08,02,17,39,18.90
2010,08,02,17,40,19.00
2010,08,02,17,41,19.00
2010,08,02,17,42,19.00
2010,08,02,17,43,18.90
2010,08,02,17,44,18.90
2010,08,02,17,45,18.90
2010,08,02,17,46,18.90
2010,08,02,17,47,18.90
2010,08,02,17,48,18.90
2010,08,02,17,49,19.00
2010,08,02,17,50,19.10
2010,08,02,17,51,19.10
2010,08,02,17,52,19.30
2010,08,02,17,53,19.40
2010,08,02,17,54,19.50
2010,08,02,17,55,19.60
2010,08,02,17,56,19.60
2010,08,02,17,57,19.70
2010,08,02,17,58,19.70
2010,08,02,17,59,19.80
2010,08,02,18,00,19.80
2010,08,02,18,01,19.80
2010,08,02,18,02,19.80
2010,08,02,18,03,19.80
2010,08,02,18,04,19.80
2010,08,02,18,05,19.80
2010,08,02,18,06,19.80
2010,08,02,18,07,19.80
2010,08,02,18,08,19.70
2010,08,02,18,09,19.70
2010,08,02,18,10,19.70
2010,08,02,18,11,19.70
2010,08,02,18,12,19.60
2010,08,02,18,13,19.50
2010,08,02,18,14,19.50
2010,08,02,18,15,19.40
2010,08,02,18,16,19.30
2010,08,02,18,17,19.30
2010,08,02,18,18,19.30
2010,08,02,18,19,19.20
2010,08,02,18,20,19.20
2010,08,02,18,21,19.20
2010,08,02,18,22,19.10
2010,08,02,18,23,19.00
2010,08,02,18,24,18.90
2010,08,02,18,25,18.90
2010,08,02,18,26,18.80
2010,08,02,18,27,18.80
2010,08,02,18,28,18.70
2010,08,02,18,29,18.70
2010,08,02,18,30,18.70
2010,08,02,18,31,18.70
2010,08,02,18,32,18.80
2010,08,02,18,33,18.80
2010,08,02,18,34,18.80
2010,08,02,18,35,18.80
2010,08,02,18,36,18.90
2010,08,02,18,37,18.90
2010,08,02,18,38,18.80
2010,08,02,18,39,18.80
2010,08,02,18,40,18.80
2010,08,02,18,41,18.80
2010,08,02,18,42,18.80
2010,08,02,18,43,18.80
2010,08,02,18,44,18.80
2010,08,02,18,45,18.80
2010,08,02,18,46,18.80
2010,08,02,18,47,18.80
2010,08,02,18,48,18.80
2010,08,02,18,49,18.80
2010,08,02,18,50,18.70
2010,08,02,18,51,18.70
2010,08,02,18,52,18.70
2010,08,02,18,53,18.60
2010,08,02,18,54,18.60
2010,08,02,18,55,18.60
2010,08,02,18,56,18.60
2010,08,02,18,57,18.50
2010,08,02,18,58,18.50
2010,08,02,18,59,18.50
2010,08,02,19,00,18.50
2010,08,02,19,01,18.40
2010,08,02,19,02,18.40
2010,08,02,19,03,18.40
2010,08,02,19,04,18.40
2010,08,02,19,05,18.40
2010,08,02,19,06,18.30
2010,08,02,19,07,18.30
2010,08,02,19,08,18.30
2010,08,02,19,09,18.30
2010,08,02,19,10,18.20
2010,08,02,19,11,18.20
2010,08,02,19,12,18.20
2010,08,02,19,13,18.20
2010,08,02,19,14,18.20
2010,08,02,19,15,18.10
2010,08,02,19,16,18.10
2010,08,02,19,17,18.10
2010,08,02,19,18,18.10
2010,08,02,19,19,18.10
2010,08,02,19,20,18.10
2010,08,02,19,21,18.10
2010,08,02,19,22,18.00
2010,08,02,19,23,18.00
2010,08,02,19,24,17.90
2010,08,02,19,25,17.80
2010,08,02,19,26,17.80
2010,08,02,19,27,17.80
2010,08,02,19,28,17.80
2010,08,02,19,29,17.80
2010,08,02,19,30,17.80
2010,08,02,19,31,17.80
2010,08,02,19,32,17.80
2010,08,02,19,33,17.80
2010,08,02,19,34,17.80
2010,08,02,19,35,17.80
2010,08,02,19,36,17.80
